CQ0XBF-11 Chamusca PT current weather conditions

sailwx.info

Wind from 177

Air temperature 13.9° C
Dewpoint 6.2° C

Last reported at 2017-Feb-20 21:48 UTC.
Time now 2017-Feb-20 22:35 UTC

Location: N 39°21' W 008°28'.
View on Google Maps.

See reports from other nearby stations

  
Tides and Currents Weather Stations Pressure Air Temp Water Temp Dewpoint Dewpoint Depression Visibility Wind Speed Wind Dir Waves Ship Positions
date/time (UTC)wind fromknots sea level pressurealtimeterstation pressurevisibilityair tempwater tempwave heightnotes
2017-Feb-20 21:48 177 13.9
2017-Feb-20 21:44 209 13.9
2017-Feb-20 21:38 126 0 gusting 3 13.9
2017-Feb-20 21:34 091 1 gusting 2 13.9
2017-Feb-20 21:30 094 1 gusting 2 14.4
2017-Feb-20 21:24 216 14.4
2017-Feb-20 21:20 154 0 gusting 4 14.4
2017-Feb-20 21:13 215 0 gusting 2 14.4
2017-Feb-20 21:09 215 14.4
2017-Feb-20 21:03 255 0 gusting 2 14.4
2017-Feb-20 20:59 230 15.0
2017-Feb-20 20:53 122 0 gusting 2 15.0
2017-Feb-20 20:49 101 3 gusting 2 15.0
2017-Feb-20 20:43 101 0 gusting 2 15.0
2017-Feb-20 20:39 106 0 gusting 2 15.0
2017-Feb-20 20:33 255 15.0
2017-Feb-20 20:29 225 1 gusting 2 15.0
2017-Feb-20 20:23 137 0 gusting 4 15.6
2017-Feb-20 20:19 168 15.6
2017-Feb-20 20:13 123 2 gusting 6 15.6
2017-Feb-20 20:09 057 5 gusting 6 15.6
2017-Feb-20 20:05 099 5 gusting 6 15.6
2017-Feb-20 19:59 036 2 gusting 6 15.6
2017-Feb-20 19:54 087 4 gusting 6 15.6
2017-Feb-20 19:48 061 3 gusting 6 15.6
2017-Feb-20 19:44 067 1 gusting 6 15.6
2017-Feb-20 19:38 064 3 gusting 6 15.6
2017-Feb-20 19:34 094 6 gusting 6 15.6
2017-Feb-20 19:28 123 3 gusting 6 16.1
2017-Feb-20 19:24 116 3 gusting 6 16.1
2017-Feb-20 19:18 120 4 gusting 6 16.1
2017-Feb-20 19:14 095 3 gusting 6 16.7
2017-Feb-20 19:08 095 2 gusting 6 16.7
2017-Feb-20 19:04 115 2 gusting 6 16.7
2017-Feb-20 18:58 125 2 gusting 3 16.7
2017-Feb-20 18:54 125 2 gusting 4 16.7
2017-Feb-20 18:50 127 2 gusting 4 17.2
2017-Feb-20 18:44 123 2 gusting 4 17.2
2017-Feb-20 18:39 122 2 gusting 4 17.8
2017-Feb-20 18:33 135 1 gusting 3 17.8
2017-Feb-20 18:29 099 1 gusting 3 17.8
2017-Feb-20 18:23 111 1 gusting 2 18.3
2017-Feb-20 18:19 113 0 gusting 2 18.3
2017-Feb-20 18:13 115 1 gusting 3 18.3
2017-Feb-20 18:09 108 2 gusting 3 18.9
2017-Feb-20 18:03 108 0 gusting 4 18.9
2017-Feb-20 17:59 108 2 gusting 4 19.4
2017-Feb-20 17:53 097 0 gusting 5 19.4
2017-Feb-20 17:49 095 2 gusting 5 19.4
2017-Feb-20 17:43 156 0 gusting 5 20.0
2017-Feb-20 17:39 116 0 gusting 4 20.6
2017-Feb-20 17:35 094 0 gusting 4 20.6
2017-Feb-20 17:29 050 21.1
2017-Feb-20 17:25 068 2 gusting 2 21.1
2017-Feb-20 17:18 309 20.6
2017-Feb-20 17:14 033 0 gusting 9 20.6
2017-Feb-20 17:08 026 0 gusting 7 20.6
2017-Feb-20 17:04 132 0 gusting 7 20.6
2017-Feb-20 16:58 132 3 gusting 7 21.1
2017-Feb-20 16:54 170 2 gusting 7 21.1
2017-Feb-20 16:48 229 2 gusting 8 21.1
2017-Feb-20 16:44 061 1 gusting 8 21.1
2017-Feb-20 16:38 088 4 gusting 8 21.7
2017-Feb-20 16:34 177 0 gusting 8 21.1
2017-Feb-20 16:28 288 3 gusting 8 20.6
2017-Feb-20 16:24 199 1 gusting 6 21.1
2017-Feb-20 16:20 265 1 gusting 6 21.7
2017-Feb-20 16:14 146 1 gusting 9 21.7
2017-Feb-20 16:10 046 4 gusting 9 21.7
2017-Feb-20 16:03 254 3 gusting 6 22.2
2017-Feb-20 15:59 206 1 gusting 6 22.8
2017-Feb-20 15:53 090 3 gusting 5 22.8
2017-Feb-20 15:49 090 3 gusting 5 22.8
2017-Feb-20 15:43 255 0 gusting 7 22.2
2017-Feb-20 15:39 324 1 gusting 7 22.2
2017-Feb-20 15:33 187 1 gusting 8 22.2
2017-Feb-20 15:29 097 6 gusting 8 22.2
2017-Feb-20 15:23 264 3 gusting 9 22.2
2017-Feb-20 15:19 085 1 gusting 9 22.2
2017-Feb-20 15:13 303 3 gusting 6 22.2
2017-Feb-20 15:09 206 2 gusting 6 22.8
2017-Feb-20 15:03 174 1 gusting 7 22.2
2017-Feb-20 14:59 225 1 gusting 9 21.7
2017-Feb-20 14:55 077 4 gusting 9 22.2
2017-Feb-20 14:49 018 0 gusting 9 21.7
2017-Feb-20 14:44 144 21.7
2017-Feb-20 14:38 088 3 gusting 10 21.7
2017-Feb-20 14:34 195 3 gusting 10 21.7
2017-Feb-20 14:28 139 4 gusting 7 21.7
2017-Feb-20 14:24 168 3 gusting 7 21.7
2017-Feb-20 14:18 196 2 gusting 10 21.7
2017-Feb-20 14:14 004 1 gusting 10 21.1
2017-Feb-20 14:08 227 2 gusting 8 21.1
2017-Feb-20 14:04 066 5 gusting 8 20.6
2017-Feb-20 13:58 101 0 gusting 13 20.0
2017-Feb-20 13:54 120 6 gusting 13 20.0
2017-Feb-20 13:48 056 10 gusting 14 20.0
2017-Feb-20 13:44 153 3 gusting 9 20.0
2017-Feb-20 13:40 084 6 gusting 9 20.0
2017-Feb-20 13:34 153 1 gusting 6 21.1
2017-Feb-20 13:30 268 3 gusting 6 20.0
2017-Feb-20 13:23 080 4 gusting 13 19.4
2017-Feb-20 13:19 046 5 gusting 13 18.9
2017-Feb-20 13:13 315 4 gusting 8 20.0
2017-Feb-20 13:09 136 6 gusting 8 20.0
2017-Feb-20 13:03 068 4 gusting 11 20.0
2017-Feb-20 12:59 300 4 gusting 11 20.0
2017-Feb-20 12:53 185 1 gusting 6 20.0
2017-Feb-20 12:49 126 0 gusting 6 19.4
2017-Feb-20 12:43 232 0 gusting 7 18.9
2017-Feb-20 12:39 129 6 gusting 7 18.3
2017-Feb-20 12:33 109 6 gusting 8 18.3
2017-Feb-20 12:29 312 2 gusting 11 17.8
2017-Feb-20 12:25 099 2 gusting 11 17.8
2017-Feb-20 12:19 222 1 gusting 9 17.8
2017-Feb-20 12:15 111 1 gusting 9 17.2
2017-Feb-20 12:08 208 17.2
2017-Feb-20 12:04 219 17.2
2017-Feb-20 11:58 014 2 gusting 6 17.2
2017-Feb-20 11:54 120 1 gusting 6 17.2
2017-Feb-20 11:48 216 3 gusting 11 16.7
2017-Feb-20 11:44 039 2 gusting 11 16.1
2017-Feb-20 11:38 067 1 gusting 8 16.1
2017-Feb-20 11:34 043 5 gusting 8 16.1
2017-Feb-20 11:28 300 3 gusting 8 15.6
2017-Feb-20 11:24 140 2 gusting 8 15.6
2017-Feb-20 11:18 227 2 gusting 6 15.6
2017-Feb-20 11:14 220 1 gusting 6 15.6
2017-Feb-20 11:10 140 4 gusting 6 15.6
2017-Feb-20 11:04 070 4 gusting 8 15.0
2017-Feb-20 11:00 073 0 gusting 8 14.4
2017-Feb-20 10:53 071 2 gusting 11 14.4
2017-Feb-20 10:49 143 4 gusting 11 13.9
2017-Feb-20 10:43 060 10 gusting 13 13.9
2017-Feb-20 10:39 306 2 gusting 13 13.9
2017-Feb-20 10:33 254 2 gusting 15 13.9
2017-Feb-20 10:29 113 2 gusting 15 13.3
2017-Feb-20 10:23 061 7 gusting 13 13.3
2017-Feb-20 10:19 250 3 gusting 13 13.3
2017-Feb-20 10:13 113 4 gusting 8 13.3
2017-Feb-20 10:09 199 4 gusting 8 13.3
2017-Feb-20 10:03 244 1 gusting 11 12.8
2017-Feb-20 09:59 070 6 gusting 11 12.2
2017-Feb-20 09:53 262 5 gusting 11 12.2
2017-Feb-20 09:49 082 6 gusting 13 12.2
2017-Feb-20 09:45 344 4 gusting 13 12.2
2017-Feb-20 09:39 054 3 gusting 12 11.7
2017-Feb-20 09:34 136 10 gusting 12 11.7
2017-Feb-20 09:28 322 3 gusting 13 11.7
2017-Feb-20 09:24 358 5 gusting 13 11.7
2017-Feb-20 09:18 327 0 gusting 7 11.7
2017-Feb-20 09:14 165 3 gusting 7 11.1
2017-Feb-20 09:08 171 1 gusting 6 11.1
2017-Feb-20 09:04 247 3 gusting 6 11.1
2017-Feb-20 08:58 271 10.6
2017-Feb-20 08:54 270 10.6
2017-Feb-20 08:48 133 0 gusting 7 10.6
2017-Feb-20 08:44 170 0 gusting 7 10.6
2017-Feb-20 08:38 132 1 gusting 6 10.6
2017-Feb-20 08:34 116 0 gusting 5 10.6
2017-Feb-20 08:30 091 1 gusting 5 10.6
2017-Feb-20 08:24 265 0 gusting 7 10.0
2017-Feb-20 08:19 102 5 gusting 7 10.0
2017-Feb-20 08:13 132 1 gusting 6 10.0
2017-Feb-20 08:09 279 2 gusting 6 10.6
2017-Feb-20 08:03 251 0 gusting 6 10.6
2017-Feb-20 07:59 305 1 gusting 6 10.6
2017-Feb-20 07:53 232 0 gusting 3 10.0
2017-Feb-20 07:49 243 0 gusting 3 9.4
2017-Feb-20 07:43 261 0 gusting 3 8.9
2017-Feb-20 07:39 236 2 gusting 3 8.9
2017-Feb-20 07:33 255 1 gusting 3 8.3
2017-Feb-20 07:29 265 2 gusting 3 7.8
2017-Feb-20 07:23 241 0 gusting 7 7.8
2017-Feb-20 07:19 227 2 gusting 6 7.8
2017-Feb-20 07:15 257 2 gusting 6 7.8
2017-Feb-20 07:09 299 3 gusting 6 7.8
2017-Feb-20 07:05 199 1 gusting 6 7.8
2017-Feb-20 06:58 255 5 gusting 6 8.3
2017-Feb-20 06:54 203 3 gusting 6 8.3
2017-Feb-20 06:48 255 3 gusting 8 8.3
2017-Feb-20 06:44 178 1 gusting 8 8.3
2017-Feb-20 06:38 046 1 gusting 5 8.3
2017-Feb-20 06:34 230 1 gusting 5 8.3
2017-Feb-20 06:28 293 2 gusting 4 8.3
2017-Feb-20 06:24 282 1 gusting 4 8.3
2017-Feb-20 06:18 195 0 gusting 6 8.3
2017-Feb-20 06:14 219 8.3
2017-Feb-20 06:08 133 1 gusting 6 8.3
2017-Feb-20 06:04 208 0 gusting 6 8.3
2017-Feb-20 06:00 143 2 gusting 6 8.3
2017-Feb-20 05:54 092 4 gusting 7 8.3
2017-Feb-20 05:50 063 6 gusting 7 8.3
2017-Feb-20 05:43 078 5 gusting 4 8.3
2017-Feb-20 05:39 070 3 gusting 4 8.3
2017-Feb-20 05:33 057 1 gusting 2 8.3
2017-Feb-20 05:29 092 8.3
2017-Feb-20 05:23 059 0 gusting 7 8.3
2017-Feb-20 05:19 120 1 gusting 7 8.3
2017-Feb-20 05:13 135 2 gusting 6 8.3
2017-Feb-20 05:09 154 4 gusting 6 8.3
2017-Feb-20 05:03 143 2 gusting 4 8.3
2017-Feb-20 04:59 140 2 gusting 4 8.9
2017-Feb-20 04:53 139 1 gusting 6 8.9
2017-Feb-20 04:49 088 1 gusting 4 8.9
2017-Feb-20 04:45 140 2 gusting 4 8.9
2017-Feb-20 04:39 104 1 gusting 3 8.9
2017-Feb-20 04:35 106 1 gusting 3 8.9
2017-Feb-20 04:28 090 2 gusting 4 8.9
2017-Feb-20 04:24 081 0 gusting 4 8.9
2017-Feb-20 04:18 075 0 gusting 6 8.9
2017-Feb-20 04:14 116 2 gusting 6 8.9
2017-Feb-20 04:08 118 1 gusting 5 8.9
2017-Feb-20 04:04 136 2 gusting 5 8.9
2017-Feb-20 03:58 112 2 gusting 4 8.9
2017-Feb-20 03:54 112 1 gusting 4 8.9
2017-Feb-20 03:48 125 0 gusting 4 9.4
2017-Feb-20 03:44 078 0 gusting 4 9.4
2017-Feb-20 03:38 077 3 gusting 4 9.4
2017-Feb-20 03:34 115 1 gusting 3 9.4
2017-Feb-20 03:30 071 2 gusting 3 9.4
2017-Feb-20 03:24 092 2 gusting 4 9.4
2017-Feb-20 03:20 118 0 gusting 4 10.0
2017-Feb-20 03:13 130 0 gusting 7 10.0
2017-Feb-20 03:09 129 2 gusting 7 10.0
2017-Feb-20 03:03 102 1 gusting 4 10.0
2017-Feb-20 02:59 073 1 gusting 4 9.4
2017-Feb-20 02:53 133 1 gusting 4 10.0
2017-Feb-20 02:49 104 2 gusting 4 10.0
2017-Feb-20 02:43 092 1 gusting 3 10.0
2017-Feb-20 02:39 066 3 gusting 3 10.0
2017-Feb-20 02:33 260 10.0
2017-Feb-20 02:29 285 10.0
2017-Feb-20 02:23 298 10.0
2017-Feb-20 02:19 067 3 gusting 5 10.0
2017-Feb-20 02:15 063 1 gusting 4 10.0
2017-Feb-20 02:09 040 0 gusting 3 10.0
2017-Feb-20 02:05 111 10.0
2017-Feb-20 01:59 118 10.0
2017-Feb-20 01:54 063 0 gusting 4 10.0
2017-Feb-20 01:48 101 1 gusting 3 10.0
2017-Feb-20 01:44 147 0 gusting 3 10.0
2017-Feb-20 01:38 028 10.0
2017-Feb-20 01:34 094 10.0
2017-Feb-20 01:28 172 0 gusting 3 10.0
2017-Feb-20 01:24 161 10.0
2017-Feb-20 01:18 108 10.6
2017-Feb-20 01:14 219 10.6
2017-Feb-20 01:08 174 0 gusting 4 10.6
2017-Feb-20 01:04 289 0 gusting 4 10.0
2017-Feb-20 00:58 288 10.6
2017-Feb-20 00:54 233 10.6
2017-Feb-20 00:50 025 10.6
2017-Feb-20 00:44 313 2 gusting 2 11.1
2017-Feb-20 00:39 274 11.1
2017-Feb-20 00:33 120 11.1
2017-Feb-20 00:29 286 11.1
2017-Feb-20 00:23 220 11.1
2017-Feb-20 00:19 057 11.1
2017-Feb-20 00:13 167 11.1
2017-Feb-20 00:09 133 0 gusting 4 11.1
2017-Feb-20 00:03 303 11.1
2017-Feb-19 23:59 052 11.1
2017-Feb-19 23:53 271 0 gusting 6 11.1
2017-Feb-19 23:49 102 3 gusting 6 11.1
2017-Feb-19 23:43 084 3 gusting 3 11.1
2017-Feb-19 23:39 253 0 gusting 1 11.7
2017-Feb-19 23:35 175 1 gusting 1 11.7
2017-Feb-19 23:29 092 11.7
2017-Feb-19 23:24 248 11.7
2017-Feb-19 23:18 112 0 gusting 4 12.2
2017-Feb-19 23:14 075 2 gusting 4 12.2
2017-Feb-19 23:08 074 3 gusting 5 12.2
2017-Feb-19 23:04 074 4 gusting 5 12.2
2017-Feb-19 22:58 095 1 gusting 3 12.2
2017-Feb-19 22:54 101 12.2
2017-Feb-19 22:48 088 0 gusting 2 12.2
2017-Feb-19 22:44 122 12.2
2017-Feb-19 22:38 092 1 gusting 5 12.2
2017-Feb-19 22:34 052 0 gusting 5 12.2
2017-Feb-19 22:28 129 0 gusting 3 12.2
2017-Feb-19 22:24 116 12.8
2017-Feb-19 22:20 067 0 gusting 2 12.8
2017-Feb-19 22:14 022 12.8
2017-Feb-19 22:10 216 12.8
2017-Feb-19 22:03 118 13.3
2017-Feb-19 21:59 057 13.3
2017-Feb-19 21:53 150 0 gusting 1 13.3
2017-Feb-19 21:49 088 0 gusting 1 13.3
2017-Feb-19 21:43 033 13.3
2017-Feb-19 21:39 080 3 gusting 3 13.3
2017-Feb-19 21:33 059 3 gusting 4 13.3
2017-Feb-19 21:29 090 0 gusting 4 13.3
2017-Feb-19 21:23 074 1 gusting 3 13.3
2017-Feb-19 21:19 281 13.3
2017-Feb-19 21:13 182 13.9
2017-Feb-19 21:09 061 1 gusting 5 13.9
2017-Feb-19 21:05 056 0 gusting 5 13.9
2017-Feb-19 20:59 126 3 gusting 4 13.9
2017-Feb-19 20:55 016 0 gusting 4 13.9
2017-Feb-19 20:48 049 1 gusting 4 14.4
2017-Feb-19 20:44 137 2 gusting 4 14.4
2017-Feb-19 20:38 106 1 gusting 6 14.4
2017-Feb-19 20:34 047 14.4
2017-Feb-19 20:28 061 0 gusting 7 14.4
2017-Feb-19 20:24 075 2 gusting 7 14.4
2017-Feb-19 20:18 125 2 gusting 7 14.4
2017-Feb-19 20:14 142 4 gusting 7 14.4
2017-Feb-19 20:08 118 2 gusting 6 14.4
2017-Feb-19 20:04 143 3 gusting 6 14.4
2017-Feb-19 19:58 084 2 gusting 7 14.4
2017-Feb-19 19:54 060 4 gusting 7 14.4
2017-Feb-19 19:50 140 3 gusting 7 14.4
2017-Feb-19 19:44 154 4 gusting 6 14.4
2017-Feb-19 19:40 126 1 gusting 6 14.4
2017-Feb-19 19:34 118 3 gusting 4 14.4
2017-Feb-19 19:29 122 2 gusting 4 14.4
2017-Feb-19 19:23 108 3 gusting 3 15.0
2017-Feb-19 19:19 116 2 gusting 3 15.0
2017-Feb-19 19:13 122 1 gusting 4 15.6
2017-Feb-19 19:09 113 3 gusting 4 15.6
2017-Feb-19 19:03 088 2 gusting 4 15.6
2017-Feb-19 18:59 067 3 gusting 4 15.6
2017-Feb-19 18:53 080 4 gusting 6 16.1
2017-Feb-19 18:49 090 2 gusting 6 16.1
2017-Feb-19 18:43 109 3 gusting 2 16.1
2017-Feb-19 18:39 101 1 gusting 2 16.7
2017-Feb-19 18:33 066 16.7
2017-Feb-19 18:29 202 16.7
2017-Feb-19 18:25 118 1 gusting 1 17.2
2017-Feb-19 18:19 296 17.2
2017-Feb-19 18:15 167 0 gusting 5 17.2
2017-Feb-19 18:08 084 3 gusting 6 17.2
2017-Feb-19 18:04 022 1 gusting 6 17.2
2017-Feb-19 17:58 014 2 gusting 6 17.2
2017-Feb-19 17:54 078 6 gusting 6 17.8
2017-Feb-19 17:48 053 3 gusting 3 18.3
2017-Feb-19 17:44 130 18.3
2017-Feb-19 17:38 248 17.8
2017-Feb-19 17:34 268 18.3
2017-Feb-19 17:28 102 3 gusting 5 18.3
2017-Feb-19 17:24 337 18.9
2017-Feb-19 17:18 070 3 gusting 7 18.9
2017-Feb-19 17:14 217 0 gusting 11 19.4
2017-Feb-19 17:10 071 5 gusting 11 18.9
2017-Feb-19 17:04 073 2 gusting 7 18.9
2017-Feb-19 17:00 009 1 gusting 7 18.9
2017-Feb-19 16:53 222 18.9
2017-Feb-19 16:49 066 6 gusting 7 18.9
2017-Feb-19 16:43 278 0 gusting 9 18.9
2017-Feb-19 16:39 225 2 gusting 9 18.9
2017-Feb-19 16:33 212 1 gusting 9 19.4
2017-Feb-19 16:29 143 1 gusting 9 19.4
2017-Feb-19 16:23 085 6 gusting 10 20.0
2017-Feb-19 16:19 154 0 gusting 10 20.0
2017-Feb-19 16:13 158 1 gusting 7 19.4
2017-Feb-19 16:09 085 7 gusting 7 20.0
2017-Feb-19 16:03 106 6 gusting 9 20.0
2017-Feb-19 15:59 084 6 gusting 10 19.4
2017-Feb-19 15:55 340 1 gusting 10 19.4
2017-Feb-19 15:49 102 7 gusting 10 18.9
2017-Feb-19 15:45 056 7 gusting 10 19.4
2017-Feb-19 15:38 081 3 gusting 13 19.4
2017-Feb-19 15:34 049 1 gusting 13 18.9
2017-Feb-19 15:28 098 6 gusting 9 18.9
2017-Feb-19 15:24 071 7 gusting 9 20.0
2017-Feb-19 15:18 219 3 gusting 14 19.4
2017-Feb-19 15:14 067 5 gusting 14 18.9
2017-Feb-19 15:08 108 6 gusting 13 20.0
2017-Feb-19 15:04 043 3 gusting 13 19.4
2017-Feb-19 14:58 253 3 gusting 10 18.9
2017-Feb-19 14:54 091 6 gusting 10 18.3
2017-Feb-19 14:48 136 6 gusting 13 18.3
2017-Feb-19 14:44 042 6 gusting 11 18.9
2017-Feb-19 14:38 113 7 gusting 13 18.9
2017-Feb-19 14:34 225 4 gusting 14 18.9
2017-Feb-19 14:30 084 6 gusting 14 19.4
2017-Feb-19 14:24 139 6 gusting 15 18.9
2017-Feb-19 14:19 302 1 gusting 15 18.3
2017-Feb-19 14:13 108 6 gusting 14 18.3
2017-Feb-19 14:09 074 7 gusting 14 18.3
2017-Feb-19 14:03 122 6 gusting 15 17.8
2017-Feb-19 13:59 070 7 gusting 15 17.8
2017-Feb-19 13:53 144 6 gusting 13 18.3
2017-Feb-19 13:49 112 5 gusting 13 18.9
2017-Feb-19 13:43 099 6 gusting 9 18.3
2017-Feb-19 13:39 064 6 gusting 9 18.3
2017-Feb-19 13:33 127 6 gusting 16 17.8
2017-Feb-19 13:29 104 6 gusting 16 17.8
2017-Feb-19 13:23 087 6 gusting 13 17.2
2017-Feb-19 13:19 074 4 gusting 11 17.8
2017-Feb-19 13:15 057 17.8
2017-Feb-19 13:09 160 4 gusting 17 16.7
2017-Feb-19 13:05 144 8 gusting 17 16.7
2017-Feb-19 12:58 080 8 gusting 19 16.7
2017-Feb-19 12:54 113 9 gusting 19 17.2
2017-Feb-19 12:48 164 4 gusting 13 17.2
2017-Feb-19 12:44 084 4 gusting 13 16.7
2017-Feb-19 12:38 140 6 gusting 18 16.7
2017-Feb-19 12:34 109 11 gusting 18 16.1
2017-Feb-19 12:28 331 4 gusting 16 16.1
2017-Feb-19 12:24 043 5 gusting 16 16.1
2017-Feb-19 12:18 180 2 gusting 11 16.1
2017-Feb-19 12:14 090 6 gusting 11 16.1
2017-Feb-19 12:08 358 2 gusting 17 15.6
2017-Feb-19 12:04 061 5 gusting 16 15.6
2017-Feb-19 12:00 040 10 gusting 16 15.6
2017-Feb-19 11:54 087 6 gusting 13 15.6
2017-Feb-19 11:50 106 9 gusting 13 15.0
2017-Feb-19 11:43 080 7 gusting 14 15.0
2017-Feb-19 11:39 070 11 gusting 14 15.0
2017-Feb-19 11:33 122 6 gusting 13 15.0
2017-Feb-19 11:29 088 3 gusting 13 15.0
2017-Feb-19 11:23 109 5 gusting 14 14.4
2017-Feb-19 11:19 061 10 gusting 14 13.9
2017-Feb-19 11:13 094 6 gusting 14 13.9
2017-Feb-19 11:09 097 5 gusting 14 13.9
2017-Feb-19 11:03 043 13 gusting 19 13.3
2017-Feb-19 10:59 056 10 gusting 19 13.3
2017-Feb-19 10:53 088 8 gusting 13 13.3
2017-Feb-19 10:49 161 4 gusting 13 13.3
2017-Feb-19 10:45 149 6 gusting 13 13.3
2017-Feb-19 10:39 116 7 gusting 11 13.3
2017-Feb-19 10:35 334 2 gusting 11 12.8
2017-Feb-19 10:29 244 1 gusting 8 12.8
2017-Feb-19 10:24 001 1 gusting 8 12.8
2017-Feb-19 10:18 358 2 gusting 11 12.2
2017-Feb-19 10:14 253 5 gusting 11 11.7
2017-Feb-19 10:06 098 3 gusting 6 11.7
2017-Feb-19 10:04 240 11.7
2017-Feb-19 09:58 154 0 gusting 4 11.1
2017-Feb-19 09:54 337 6 gusting 4 11.1
2017-Feb-19 09:48 327 1 gusting 9 11.1
2017-Feb-19 09:44 005 11.1
2017-Feb-19 09:38 019 10.6
2017-Feb-19 09:34 049 2 gusting 6 10.6
2017-Feb-19 09:28 178 1 gusting 5 10.6
2017-Feb-19 09:24 293 0 gusting 8 10.0
2017-Feb-19 09:20 219 1 gusting 8 10.0
2017-Feb-19 09:14 109 1 gusting 5 10.0
2017-Feb-19 09:10 082 2 gusting 5 9.4
2017-Feb-19 09:03 227 1 gusting 5 9.4
2017-Feb-19 08:59 113 3 gusting 5 9.4
2017-Feb-19 08:53 015 8.9
2017-Feb-19 08:49 091 1 gusting 6 8.9
2017-Feb-19 08:43 068 8.9
2017-Feb-19 08:39 074 0 gusting 4 8.9
2017-Feb-19 08:33 268 0 gusting 4 8.9
2017-Feb-19 08:29 158 8.9
2017-Feb-19 08:23 203 1 gusting 6 8.9
2017-Feb-19 08:19 337 1 gusting 6 8.9
2017-Feb-19 08:13 225 2 gusting 6 8.9
2017-Feb-19 08:09 306 2 gusting 5 8.3
2017-Feb-19 08:05 112 3 gusting 5 8.9
2017-Feb-19 07:59 217 2 gusting 6 8.3
2017-Feb-19 07:55 229 2 gusting 6 8.3
2017-Feb-19 07:48 232 3 gusting 6 7.8
2017-Feb-19 07:44 178 2 gusting 6 7.2
2017-Feb-19 07:38 240 2 gusting 5 6.7
2017-Feb-19 07:34 118 1 gusting 5 6.7
2017-Feb-19 07:28 194 0 gusting 4 6.1
2017-Feb-19 07:24 198 0 gusting 4 6.1
2017-Feb-19 07:18 258 4 gusting 5 6.1
2017-Feb-19 07:14 119 2 gusting 5 6.1
2017-Feb-19 07:08 203 2 gusting 4 6.1
2017-Feb-19 07:04 168 1 gusting 4 6.1
2017-Feb-19 06:58 202 4 gusting 4 6.1
2017-Feb-19 06:54 281 0 gusting 6 6.1
2017-Feb-19 06:50 306 2 gusting 6 6.1
2017-Feb-19 06:44 202 0 gusting 3 6.1
2017-Feb-19 06:40 226 6.1
2017-Feb-19 06:34 195 6.1
2017-Feb-19 06:29 210 6.1
2017-Feb-19 06:23 090 6.1
2017-Feb-19 06:19 232 1 gusting 2 6.7
2017-Feb-19 06:13 046 0 gusting 6 6.7
2017-Feb-19 06:09 182 0 gusting 6 6.7
2017-Feb-19 06:03 187 0 gusting 4 6.7
2017-Feb-19 05:59 220 1 gusting 4 6.7
2017-Feb-19 05:53 295 3 gusting 1 6.7
2017-Feb-19 05:49 063 6.7
2017-Feb-19 05:43 281 6.7
2017-Feb-19 05:39 208 6.7
2017-Feb-19 05:33 087 6.7
2017-Feb-19 05:29 057 7.2
2017-Feb-19 05:25 057 7.2
2017-Feb-19 05:19 271 7.2
2017-Feb-19 05:14 250 2 gusting 5 7.2
2017-Feb-19 05:08 272 7.2
2017-Feb-19 05:04 178 2 gusting 5 7.2
2017-Feb-19 04:58 344 0 gusting 4 7.2
2017-Feb-19 04:54 331 3 gusting 4 7.2
2017-Feb-19 04:48 244 7.2
2017-Feb-19 04:44 209 7.2
2017-Feb-19 04:38 309 1 gusting 6 7.2
2017-Feb-19 04:34 049 2 gusting 6 7.2
2017-Feb-19 04:28 008 2 gusting 4 7.2
2017-Feb-19 04:24 139 0 gusting 4 7.2
2017-Feb-19 04:18 177 1 gusting 2 7.8
2017-Feb-19 04:14 220 7.8
2017-Feb-19 04:10 161 1 gusting 5 7.8
2017-Feb-19 04:04 157 1 gusting 3 7.8
2017-Feb-19 04:00 080 0 gusting 3 7.8
2017-Feb-19 03:53 333 0 gusting 4 7.8
2017-Feb-19 03:49 225 0 gusting 4 7.8
2017-Feb-19 03:43 063 1 gusting 6 7.8
2017-Feb-19 03:39 340 2 gusting 6 7.8
2017-Feb-19 03:33 310 2 gusting 5 7.8
2017-Feb-19 03:29 133 0 gusting 5 7.8
2017-Feb-19 03:23 309 3 gusting 3 7.8
2017-Feb-19 03:19 261 7.8
2017-Feb-19 03:13 225 0 gusting 4 7.8
2017-Feb-19 03:09 246 0 gusting 4 8.3
2017-Feb-19 03:03 192 0 gusting 4 8.3
2017-Feb-19 02:59 180 8.3
2017-Feb-19 02:55 181 8.3
2017-Feb-19 02:49 281 2 gusting 6 8.3
2017-Feb-19 02:45 135 0 gusting 6 8.3
2017-Feb-19 02:38 267 2 gusting 3 8.3
2017-Feb-19 02:34 243 0 gusting 3 8.3
2017-Feb-19 02:28 302 1 gusting 2 8.3
2017-Feb-19 02:24 150 8.3
2017-Feb-19 02:18 281 0 gusting 3 8.3
2017-Feb-19 02:14 070 0 gusting 3 8.3
2017-Feb-19 02:08 306 2 gusting 3 8.3
2017-Feb-19 02:04 004 8.3
2017-Feb-19 01:58 313 1 gusting 5 8.3
2017-Feb-19 01:54 126 8.3
2017-Feb-19 01:48 309 2 gusting 4 8.9
2017-Feb-19 01:44 247 1 gusting 2 8.9
2017-Feb-19 01:40 302 1 gusting 2 8.9
2017-Feb-19 01:34 358 8.9
2017-Feb-19 01:30 261 2 gusting 1 8.9
2017-Feb-19 01:24 180 8.9
2017-Feb-19 01:19 355 8.9
2017-Feb-19 01:13 329 0 gusting 5 8.9
2017-Feb-19 01:09 327 0 gusting 5 8.9
2017-Feb-19 01:03 330 2 gusting 4 8.9
2017-Feb-19 00:59 296 2 gusting 4 8.9
2017-Feb-19 00:53 355 1 gusting 3 9.4
2017-Feb-19 00:49 094 1 gusting 3 9.4
2017-Feb-19 00:43 330 4 gusting 4 8.9
2017-Feb-19 00:39 317 1 gusting 4 9.4
2017-Feb-19 00:33 326 2 gusting 3 9.4
2017-Feb-19 00:29 302 0 gusting 3 9.4
2017-Feb-19 00:25 316 0 gusting 3 9.4
2017-Feb-19 00:19 295 0 gusting 6 9.4
2017-Feb-19 00:15 341 2 gusting 6 9.4
2017-Feb-19 00:09 329 5 gusting 7 9.4
2017-Feb-19 00:04 337 3 gusting 7 9.4
2017-Feb-18 23:58 322 3 gusting 6 9.4
2017-Feb-18 23:54 005 2 gusting 6 9.4
2017-Feb-18 23:48 023 0 gusting 4 10.0
2017-Feb-18 23:44 274 0 gusting 4 10.0
2017-Feb-18 23:38 082 10.0
2017-Feb-18 23:34 288 1 gusting 4 10.0
2017-Feb-18 23:28 288 1 gusting 4 10.0
2017-Feb-18 23:24 303 10.0
2017-Feb-18 23:18 341 1 gusting 7 10.0
2017-Feb-18 23:14 336 10.0
2017-Feb-18 23:10 333 2 gusting 5 9.4
2017-Feb-18 23:04 326 2 gusting 6 9.4
2017-Feb-18 23:00 315 2 gusting 6 10.0
2017-Feb-18 22:54 319 2 gusting 8 10.0
2017-Feb-18 22:49 326 5 gusting 8 10.0
2017-Feb-18 22:43 310 5 gusting 8 10.0
2017-Feb-18 22:39 322 4 gusting 8 10.0
2017-Feb-18 22:33 331 4 gusting 8 10.0
2017-Feb-18 22:29 350 4 gusting 8 10.0
2017-Feb-18 22:23 312 4 gusting 6 10.0
2017-Feb-18 22:19 052 0 gusting 6 10.0
2017-Feb-18 22:13 315 3 gusting 5 10.0
2017-Feb-18 22:09 341 2 gusting 5 10.0
2017-Feb-18 22:03 011 0 gusting 6 10.6